This is the latest recevied weather packets stored in our database for station/object EA2AFZ-W. If no packets are shown the sender has not sent any weather packets the latest 10 day(s).
| Time | Temp. | Humidity | Pressure | Rain* | Wind** | Luminosity | Snow |
|---|---|---|---|---|---|---|---|
| 1788444921 | 29.44° C | 46% | 1021 hPa | 0 mm | - | - | - |
| 1788443118 | 29.44° C | 45% | 1021 hPa | 0 mm | - | - | - |
| 1788441317 | 29.44° C | 44% | 1022 hPa | 0 mm | - | - | - |
| 1788439514 | 28.89° C | 45% | 1022 hPa | 0 mm | - | - | - |
| 1788437711 | 28.89° C | 43% | 1022 hPa | 0 mm | - | - | - |
| 1788435910 | 26.67° C | 60% | 1022 hPa | 0 mm | - | - | - |
| 1788434108 | 26.67° C | 57% | 1023 hPa | 0 mm | - | - | - |
| 1788432365 | 25.56° C | 62% | 1023 hPa | 0 mm | - | - | - |
| 1788430563 | 23.33° C | 69% | 1024 hPa | 0 mm | - | - | - |
| 1788428760 | 21.67° C | 71% | 1024 hPa | 0 mm | - | - | - |
| 1788426966 | 21.67° C | 73% | 1024 hPa | 0 mm | - | - | - |
| 1788425156 | 20.56° C | 80% | 1024 hPa | 0 mm | - | - | - |
| 1788423353 | 20° C | 81% | 1025 hPa | 0 mm | - | - | - |
| 1788421552 | 20° C | 81% | 1025 hPa | 0 mm | - | - | - |
| 1788419748 | 18.33° C | 84% | 1025 hPa | 0 mm | - | - | - |
| 1788417946 | 17.22° C | 83% | 1025 hPa | 0 mm | - | - | - |
| 1788416144 | 16.11° C | 79% | 1024 hPa | 0 mm | - | - | - |
| 1788414342 | 16.67° C | 84% | 1024 hPa | 0 mm | - | - | - |
| 1788412538 | 16.11° C | 79% | 1024 hPa | 0 mm | - | - | - |
| 1788410737 | 16.67° C | 84% | 1024 hPa | 0 mm | - | - | - |
| 1788408934 | 16.11° C | 79% | 1024 hPa | 0 mm | - | - | - |
| 1788407132 | 15.56° C | 78% | 1025 hPa | 0 mm | - | - | - |
| 1788405351 | 15.56° C | 77% | 1025 hPa | 0 mm | - | - | - |
| 1788403527 | 16.11° C | 75% | 1025 hPa | 0 mm | - | - | - |
| 1788401725 | 16.11° C | 75% | 1025 hPa | 0 mm | - | - | - |
* Rain latest hour (hover to see other rain measurements)
** Current wind speed in m/s (hover to see current wind gust speed)